• In Belarus
  • List of Countries
  • For 7 days
  • Water Temperature
  • Satellite Maps
  • Weather Map
  • Weather Widgets
  • user-avatar
    Login

    Hourly Weather Benguela

    Today, 24 August, Thursday

    Time Temperature Precipitation Wind Pressure Humidity
    00:00 +24°C° 0 mm 1 mps 761 mmHg 85%
    01:00 +23°C° 0 mm 1 mps 760 mmHg 85%
    02:00 +23°C° 0 mm 1 mps 760 mmHg 85%
    03:00 +23°C° 0 mm 1 mps 760 mmHg 84%
    04:00 +23°C° 0 mm 1 mps 759 mmHg 84%
    05:00 +23°C° 0 mm 1 mps 759 mmHg 81%
    06:00 +24°C° 0 mm 1 mps 760 mmHg 79%
    07:00 +24°C° 0 mm 1 mps 760 mmHg 76%
    08:00 +27°C° 0 mm 1 mps 760 mmHg 64%
    09:00 +30°C° 0 mm 1 mps 760 mmHg 52%
    10:00 +34°C° 0 mm 2 mps 760 mmHg 40%
    11:00 +35°C° 0 mm 2 mps 759 mmHg 38%
    12:00 +36°C° 0 mm 3 mps 759 mmHg 36%
    13:00 +37°C° 0 mm 4 mps 758 mmHg 34%
    14:00 +35°C° 0 mm 4 mps 758 mmHg 39%
    15:00 +34°C° 0 mm 4 mps 758 mmHg 43%
    16:00 +33°C° 0 mm 4 mps 757 mmHg 48%
    17:00 +30°C° 0 mm 4 mps 758 mmHg 57%
    18:00 +28°C° 0 mm 4 mps 758 mmHg 66%
    19:00 +26°C° 0 mm 3 mps 759 mmHg 76%
    20:00 +25°C° 0 mm 3 mps 759 mmHg 78%
    21:00 +25°C° 0 mm 2 mps 760 mmHg 81%
    22:00 +24°C° 0 mm 2 mps 761 mmHg 83%
    23:00 +24°C° 0 mm 2 mps 760 mmHg 85%

    Tomorrow, 25 August, Friday

    Time Temperature Precipitation Wind Pressure Humidity
    00:00 +24°C° 0 mm 2 mps 760 mmHg 87%
    01:00 +23°C° 0 mm 2 mps 760 mmHg 89%
    02:00 +23°C° 0 mm 2 mps 760 mmHg 90%
    03:00 +23°C° 0 mm 1 mps 760 mmHg 91%
    04:00 +22°C° 0 mm 1 mps 759 mmHg 91%
    05:00 +23°C° 0 mm 1 mps 760 mmHg 89%
    06:00 +23°C° 0 mm 1 mps 760 mmHg 86%
    07:00 +23°C° 0 mm 1 mps 760 mmHg 84%
    08:00 +26°C° 0 mm 2 mps 760 mmHg 72%
    09:00 +29°C° 0 mm 2 mps 760 mmHg 60%
    10:00 +32°C° 0 mm 2 mps 760 mmHg 48%
    11:00 +34°C° 0 mm 3 mps 759 mmHg 45%
    12:00 +35°C° 0 mm 4 mps 758 mmHg 42%
    13:00 +36°C° 0 mm 4 mps 757 mmHg 39%
    14:00 +35°C° 0 mm 4 mps 757 mmHg 44%
    15:00 +33°C° 0 mm 4 mps 756 mmHg 49%
    16:00 +32°C° 0 mm 4 mps 756 mmHg 54%
    17:00 +29°C° 0 mm 4 mps 756 mmHg 61%
    18:00 +27°C° 0 mm 4 mps 757 mmHg 68%
    19:00 +25°C° 0 mm 3 mps 758 mmHg 75%
    20:00 +25°C° 0 mm 3 mps 758 mmHg 77%
    21:00 +24°C° 0 mm 2 mps 759 mmHg 79%
    22:00 +24°C° 0 mm 2 mps 759 mmHg 81%
    23:00 +24°C° 0 mm 2 mps 759 mmHg 83%

    Day after tomorrow, 26 August, Saturday

    Time Temperature Precipitation Wind Pressure Humidity
    00:00 +23°C° 0 mm 1 mps 759 mmHg 84%
    01:00 +23°C° 0 mm 1 mps 759 mmHg 86%
    02:00 +23°C° 0 mm 1 mps 758 mmHg 88%
    03:00 +22°C° 0 mm 1 mps 758 mmHg 89%
    04:00 +22°C° 0 mm 1 mps 758 mmHg 91%
    05:00 +22°C° 0 mm 1 mps 758 mmHg 90%
    06:00 +22°C° 0 mm 1 mps 759 mmHg 89%
    07:00 +22°C° 0 mm 1 mps 759 mmHg 89%
    08:00 +25°C° 0 mm 1 mps 759 mmHg 77%
    09:00 +28°C° 0 mm 1 mps 759 mmHg 65%
    10:00 +30°C° 0 mm 2 mps 759 mmHg 52%
    11:00 +32°C° 0 mm 2 mps 758 mmHg 48%
    12:00 +34°C° 0 mm 3 mps 758 mmHg 43%
    13:00 +35°C° 0 mm 4 mps 757 mmHg 38%
    14:00 +34°C° 0 mm 4 mps 756 mmHg 44%
    15:00 +31°C° 0 mm 3 mps 756 mmHg 50%
    16:00 +29°C° 0 mm 3 mps 756 mmHg 56%
    17:00 +28°C° 0 mm 3 mps 756 mmHg 63%
    18:00 +26°C° 0 mm 2 mps 757 mmHg 70%
    19:00 +24°C° 0 mm 2 mps 758 mmHg 77%
    20:00 +24°C° 0 mm 1 mps 758 mmHg 79%
    21:00 +23°C° 0 mm 1 mps 759 mmHg 82%
    22:00 +23°C° 0 mm 1 mps 759 mmHg 84%
    23:00 +22°C° 0 mm 1 mps 759 mmHg 86%

    27 August, Sunday

    Time Temperature Precipitation Wind Pressure Humidity
    00:00 +22°C° 0 mm 1 mps 759 mmHg 88%
    01:00 +22°C° 0 mm 1 mps 758 mmHg 90%
    02:00 +22°C° 0 mm 1 mps 758 mmHg 90%
    03:00 +21°C° 0 mm 1 mps 758 mmHg 91%
    04:00 +21°C° 0 mm 1 mps 758 mmHg 91%
    05:00 +21°C° 0 mm 1 mps 758 mmHg 90%
    06:00 +22°C° 0 mm 1 mps 759 mmHg 89%
    07:00 +21°C° 0 mm 2 mps 760 mmHg 87%
    08:00 +24°C° 0 mm 2 mps 760 mmHg 76%
    09:00 +27°C° 0 mm 2 mps 760 mmHg 64%
    10:00 +29°C° 0 mm 3 mps 759 mmHg 53%
    11:00 +30°C° 0 mm 3 mps 759 mmHg 50%
    12:00 +32°C° 0 mm 4 mps 758 mmHg 47%
    13:00 +34°C° 0 mm 5 mps 757 mmHg 44%
    14:00 +32°C° 0 mm 4 mps 757 mmHg 49%
    15:00 +30°C° 0 mm 4 mps 756 mmHg 54%
    16:00 +29°C° 0 mm 4 mps 756 mmHg 59%
    17:00 +27°C° 0 mm 3 mps 757 mmHg 66%
    18:00 +25°C° 0 mm 2 mps 758 mmHg 74%
    19:00 +24°C° 0 mm 2 mps 759 mmHg 81%
    20:00 +23°C° 0 mm 2 mps 759 mmHg 82%
    21:00 +23°C° 0 mm 2 mps 760 mmHg 83%
    22:00 +23°C° 0 mm 2 mps 760 mmHg 84%
    23:00 +23°C° 0 mm 1 mps 760 mmHg 85%

    28 August, Monday

    Time Temperature Precipitation Wind Pressure Humidity
    00:00 +23°C° 0 mm 1 mps 760 mmHg 86%
    01:00 +22°C° 0 mm 1 mps 759 mmHg 87%
    02:00 +22°C° 0 mm 1 mps 759 mmHg 88%
    03:00 +22°C° 0 mm 1 mps 759 mmHg 89%
    04:00 +21°C° 0 mm 1 mps 759 mmHg 90%
    05:00 +22°C° 0 mm 1 mps 759 mmHg 90%
    06:00 +21°C° 0 mm 2 mps 760 mmHg 89%
    07:00 +21°C° 0 mm 2 mps 760 mmHg 89%
    08:00 +24°C° 0 mm 2 mps 760 mmHg 77%
    09:00 +27°C° 0 mm 3 mps 760 mmHg 64%
    10:00 +29°C° 0 mm 3 mps 760 mmHg 52%
    11:00 +30°C° 0 mm 3 mps 759 mmHg 50%
    12:00 +32°C° 0 mm 4 mps 758 mmHg 48%
    13:00 +33°C° 0 mm 4 mps 758 mmHg 46%
    14:00 +32°C° 0 mm 4 mps 757 mmHg 50%
    15:00 +30°C° 0 mm 4 mps 757 mmHg 54%
    16:00 +29°C° 0 mm 4 mps 757 mmHg 58%
    17:00 +27°C° 0 mm 3 mps 758 mmHg 66%
    18:00 +25°C° 0 mm 3 mps 759 mmHg 73%
    19:00 +24°C° 0 mm 2 mps 760 mmHg 81%
    20:00 +23°C° 0 mm 1 mps 760 mmHg 81%
    21:00 +23°C° 0 mm 1 mps 761 mmHg 81%
    22:00 +23°C° 0 mm 1 mps 761 mmHg 81%
    23:00 +23°C° 0 mm 1 mps 761 mmHg 82%

    29 August, Tuesday

    Time Temperature Precipitation Wind Pressure Humidity
    00:00 +21°C° 0 mm 0 mps 761 mmHg 83%
    01:00 +20°C° 0 mm 0 mps 760 mmHg 84%
    02:00 +22°C° 0 mm 1 mps 760 mmHg 86%
    03:00 +22°C° 0 mm 1 mps 760 mmHg 87%
    04:00 +22°C° 0 mm 1 mps 760 mmHg 89%
    05:00 +22°C° 0 mm 1 mps 760 mmHg 88%
    06:00 +22°C° 0 mm 1 mps 761 mmHg 87%
    07:00 +22°C° 0 mm 1 mps 761 mmHg 86%
    08:00 +24°C° 0 mm 2 mps 761 mmHg 75%
    09:00 +27°C° 0 mm 2 mps 761 mmHg 64%
    10:00 +29°C° 0 mm 2 mps 761 mmHg 53%
    11:00 +30°C° 0 mm 3 mps 760 mmHg 50%
    12:00 +31°C° 0 mm 3 mps 759 mmHg 47%
    13:00 +33°C° 0 mm 4 mps 758 mmHg 43%
    14:00 +32°C° 0 mm 4 mps 758 mmHg 47%
    15:00 +30°C° 0 mm 4 mps 757 mmHg 50%
    16:00 +29°C° 0 mm 4 mps 757 mmHg 54%
    17:00 +28°C° 0 mm 3 mps 758 mmHg 61%
    18:00 +26°C° 0 mm 3 mps 758 mmHg 69%
    19:00 +24°C° 0 mm 2 mps 759 mmHg 77%
    20:00 +24°C° 0 mm 2 mps 760 mmHg 79%
    21:00 +23°C° 0 mm 1 mps 760 mmHg 81%
    22:00 +23°C° 0 mm 1 mps 761 mmHg 84%
    23:00 +23°C° 0 mm 1 mps 760 mmHg 85%
    Show more